When you browse on this site, cookies collect data to enhance your experience and personalize the content and advertising you see.
Visit our Privacy Policy to learn more. By continuing to use the site, you agree to this use of cookies and data.
EN

Hourly Weather Uberlingen

Today, 3 July, Friday

Time Temperature Precipitation Wind Pressure Humidity
00:00 +15°C° 0.1 mm 1 mps 723 mmHg 91%
01:00 +15°C° 0 mm 1 mps 723 mmHg 93%
02:00 +15°C° 0.3 mm 1 mps 723 mmHg 94%
03:00 +15°C° 0.3 mm 1 mps 723 mmHg 94%
04:00 +15°C° 0.3 mm 1 mps 723 mmHg 95%
05:00 +15°C° 0.4 mm 1 mps 723 mmHg 95%
06:00 +15°C° 0.4 mm 1 mps 724 mmHg 94%
07:00 +16°C° 0 mm 1 mps 724 mmHg 95%
08:00 +16°C° 0.2 mm 1 mps 724 mmHg 90%
09:00 +18°C° 0.2 mm 1 mps 724 mmHg 86%
10:00 +19°C° 0.2 mm 1 mps 724 mmHg 82%
11:00 +20°C° 0.3 mm 1 mps 725 mmHg 77%
12:00 +21°C° 0.3 mm 1 mps 725 mmHg 71%
13:00 +22°C° 0.3 mm 1 mps 725 mmHg 66%
14:00 +23°C° 0.1 mm 1 mps 725 mmHg 63%
15:00 +23°C° 0.1 mm 1 mps 724 mmHg 60%
16:00 +24°C° 0.1 mm 1 mps 724 mmHg 57%
17:00 +23°C° 0.1 mm 1 mps 724 mmHg 65%
18:00 +22°C° 0.1 mm 1 mps 725 mmHg 72%
19:00 +21°C° 0.1 mm 1 mps 725 mmHg 79%
20:00 +19°C° 0.1 mm 1 mps 725 mmHg 83%
21:00 +16°C° 0.1 mm 1 mps 725 mmHg 86%
22:00 +15°C° 0.1 mm 1 mps 725 mmHg 89%
23:00 +14°C° 0 mm 1 mps 725 mmHg 90%

Tomorrow, 4 July, Saturday

Time Temperature Precipitation Wind Pressure Humidity
00:00 +14°C° 0 mm 1 mps 725 mmHg 90%
01:00 +13°C° 0 mm 1 mps 725 mmHg 91%
02:00 +12°C° 0 mm 0 mps 725 mmHg 92%
03:00 +11°C° 0 mm 0 mps 725 mmHg 92%
04:00 +11°C° 0 mm 0 mps 725 mmHg 93%
05:00 +12°C° 0 mm 0 mps 725 mmHg 90%
06:00 +14°C° 0 mm 0 mps 725 mmHg 87%
07:00 +15°C° 0 mm 0 mps 725 mmHg 84%
08:00 +17°C° 0 mm 0 mps 726 mmHg 76%
09:00 +19°C° 0 mm 0 mps 726 mmHg 68%
10:00 +23°C° 0 mm 1 mps 726 mmHg 61%
11:00 +24°C° 0 mm 1 mps 726 mmHg 58%
12:00 +25°C° 0 mm 1 mps 726 mmHg 55%
13:00 +25°C° 0 mm 1 mps 725 mmHg 52%
14:00 +26°C° 0 mm 2 mps 725 mmHg 52%
15:00 +26°C° 0 mm 2 mps 725 mmHg 51%
16:00 +26°C° 0 mm 2 mps 725 mmHg 50%
17:00 +25°C° 0 mm 2 mps 725 mmHg 57%
18:00 +23°C° 0 mm 2 mps 725 mmHg 63%
19:00 +21°C° 0 mm 2 mps 725 mmHg 69%
20:00 +19°C° 0 mm 2 mps 725 mmHg 74%
21:00 +18°C° 0 mm 1 mps 726 mmHg 79%
22:00 +15°C° 0 mm 1 mps 726 mmHg 84%
23:00 +15°C° 0 mm 1 mps 726 mmHg 86%

Day after tomorrow, 5 July, Sunday

Time Temperature Precipitation Wind Pressure Humidity
00:00 +14°C° 0 mm 1 mps 726 mmHg 87%
01:00 +14°C° 0 mm 1 mps 726 mmHg 89%
02:00 +14°C° 0 mm 1 mps 726 mmHg 90%
03:00 +13°C° 0 mm 1 mps 725 mmHg 91%
04:00 +13°C° 0 mm 1 mps 725 mmHg 92%
05:00 +15°C° 0 mm 1 mps 725 mmHg 88%
06:00 +16°C° 0 mm 1 mps 725 mmHg 83%
07:00 +19°C° 0 mm 1 mps 725 mmHg 78%
08:00 +19°C° 0 mm 2 mps 725 mmHg 72%
09:00 +21°C° 0 mm 2 mps 725 mmHg 67%
10:00 +24°C° 0 mm 3 mps 725 mmHg 61%
11:00 +25°C° 0 mm 3 mps 725 mmHg 58%
12:00 +26°C° 0 mm 3 mps 725 mmHg 56%
13:00 +27°C° 0 mm 3 mps 725 mmHg 53%
14:00 +27°C° 0 mm 3 mps 724 mmHg 54%
15:00 +28°C° 0 mm 3 mps 724 mmHg 55%
16:00 +28°C° 0 mm 4 mps 724 mmHg 56%
17:00 +27°C° 0 mm 3 mps 724 mmHg 62%
18:00 +25°C° 0 mm 3 mps 724 mmHg 69%
19:00 +24°C° 0 mm 2 mps 723 mmHg 75%
20:00 +21°C° 0 mm 2 mps 723 mmHg 81%
21:00 +20°C° 0 mm 2 mps 724 mmHg 87%
22:00 +18°C° 0 mm 2 mps 724 mmHg 93%
23:00 +18°C° 0 mm 2 mps 723 mmHg 92%

6 July, Monday

Time Temperature Precipitation Wind Pressure Humidity
00:00 +18°C° 0 mm 2 mps 723 mmHg 92%
01:00 +18°C° 0 mm 2 mps 723 mmHg 91%
02:00 +18°C° 0 mm 2 mps 723 mmHg 92%
03:00 +17°C° 0 mm 2 mps 723 mmHg 93%
04:00 +17°C° 0 mm 2 mps 722 mmHg 95%
05:00 +18°C° 0 mm 2 mps 722 mmHg 91%
06:00 +19°C° 0 mm 3 mps 723 mmHg 88%
07:00 +19°C° 0 mm 4 mps 723 mmHg 85%
08:00 +20°C° 0.1 mm 4 mps 723 mmHg 78%
09:00 +21°C° 0.1 mm 5 mps 723 mmHg 71%
10:00 +22°C° 0.1 mm 5 mps 723 mmHg 65%
11:00 +22°C° 0.1 mm 5 mps 723 mmHg 63%
12:00 +23°C° 0.1 mm 5 mps 723 mmHg 60%
13:00 +23°C° 0.1 mm 5 mps 723 mmHg 58%
14:00 +23°C° 0 mm 4 mps 723 mmHg 56%
15:00 +23°C° 0 mm 4 mps 723 mmHg 55%
16:00 +22°C° 0 mm 4 mps 723 mmHg 53%
17:00 +21°C° 0 mm 4 mps 724 mmHg 58%
18:00 +20°C° 0 mm 3 mps 724 mmHg 63%
19:00 +18°C° 0 mm 3 mps 724 mmHg 68%
20:00 +17°C° 0 mm 2 mps 724 mmHg 70%
21:00 +15°C° 0 mm 2 mps 725 mmHg 72%
22:00 +14°C° 0 mm 1 mps 725 mmHg 74%
23:00 +14°C° 0 mm 1 mps 725 mmHg 74%

7 July, Tuesday

Time Temperature Precipitation Wind Pressure Humidity
00:00 +13°C° 0 mm 1 mps 725 mmHg 75%
01:00 +13°C° 0 mm 1 mps 725 mmHg 75%
02:00 +12°C° 0 mm 1 mps 725 mmHg 78%
03:00 +12°C° 0 mm 1 mps 725 mmHg 82%
04:00 +11°C° 0 mm 1 mps 725 mmHg 85%
05:00 +12°C° 0 mm 1 mps 725 mmHg 82%
06:00 +13°C° 0 mm 1 mps 725 mmHg 79%
07:00 +14°C° 0 mm 1 mps 725 mmHg 76%
08:00 +16°C° 0 mm 1 mps 725 mmHg 70%
09:00 +17°C° 0 mm 2 mps 725 mmHg 64%
10:00 +19°C° 0 mm 2 mps 725 mmHg 57%
11:00 +19°C° 0 mm 2 mps 725 mmHg 55%
12:00 +20°C° 0 mm 2 mps 725 mmHg 53%
13:00 +21°C° 0 mm 3 mps 725 mmHg 50%
14:00 +21°C° 0 mm 3 mps 725 mmHg 51%
15:00 +21°C° 0 mm 3 mps 725 mmHg 51%
16:00 +21°C° 0 mm 3 mps 725 mmHg 51%
17:00 +20°C° 0 mm 2 mps 725 mmHg 57%
18:00 +19°C° 0 mm 2 mps 725 mmHg 64%
19:00 +18°C° 0 mm 2 mps 725 mmHg 70%
20:00 +16°C° 0 mm 2 mps 725 mmHg 74%
21:00 +15°C° 0 mm 1 mps 726 mmHg 79%
22:00 +13°C° 0 mm 1 mps 726 mmHg 83%
23:00 +12°C° 0 mm 1 mps 726 mmHg 86%

8 July, Wednesday

Time Temperature Precipitation Wind Pressure Humidity
00:00 +12°C° 0 mm 1 mps 726 mmHg 88%
01:00 +11°C° 0 mm 1 mps 725 mmHg 91%
02:00 +11°C° 0 mm 1 mps 725 mmHg 92%
03:00 +10°C° 0 mm 1 mps 725 mmHg 92%
04:00 +10°C° 0 mm 1 mps 725 mmHg 93%
05:00 +11°C° 0 mm 1 mps 726 mmHg 87%
06:00 +13°C° 0 mm 1 mps 726 mmHg 82%
07:00 +14°C° 0 mm 1 mps 726 mmHg 76%
08:00 +16°C° 0 mm 2 mps 726 mmHg 69%
09:00 +18°C° 0 mm 3 mps 726 mmHg 62%
10:00 +20°C° 0 mm 3 mps 726 mmHg 56%
11:00 +21°C° 0 mm 3 mps 726 mmHg 53%
12:00 +22°C° 0 mm 3 mps 726 mmHg 51%
13:00 +23°C° 0 mm 4 mps 726 mmHg 48%
14:00 +23°C° 0 mm 4 mps 725 mmHg 49%
15:00 +24°C° 0 mm 3 mps 725 mmHg 50%
16:00 +24°C° 0 mm 3 mps 725 mmHg 51%
17:00 +22°C° 0 mm 3 mps 725 mmHg 58%
18:00 +21°C° 0 mm 2 mps 725 mmHg 65%
19:00 +20°C° 0 mm 2 mps 725 mmHg 72%
20:00 +18°C° 0 mm 2 mps 725 mmHg 78%
21:00 +16°C° 0 mm 1 mps 725 mmHg 84%
22:00 +14°C° 0 mm 1 mps 725 mmHg 90%
23:00 +14°C° 0 mm 1 mps 725 mmHg 91%
Show more